Location: Erp
(42.9417°N, 1.2009°E)
Time: 20:37:24
(UTC+00:00)

NOAA 6 - Pass Details

Date: 12 January 2026
Orbit: 767 x 780 km, 98.6° (Epoch: 13 February)

Event Time Altitude Azimuth Distance (km) Brightness Sun altitude
Rises 18:57:00 0° 173° (S) 3,222 7.3 -24.0°
Reaches altitude 10° 18:59:19 10° 177° (S) 2,301 6.5 -24.5°
Maximum altitude 19:04:20 63° 258° (WSW) 858 4.4 -25.4°
Drops below altitude 10° 19:09:25 10° 340° (NNW) 2,323 6.6 -26.3°
Sets 19:11:46 0° 344° (NNW) 3,257 7.4 -26.7°
